C6026 KSAN-

Flight info

Callsign C6026
Flight time N/A
Altitude VFR/005
Route
Aircraft H60/M-VGD/C

Departure

Time 2026-04-24 02:59
Airport San Diego International Airport (KSAN)

Arrival

Time N/A
Airport -
Time Latitude Longitude Altitude Speed Heading
2026-04-24 01:24 32.72624 -117.18141 12 ft 0 kts 291°
2026-04-24 01:25 32.72622 -117.18139 29 ft 1 kts 251°
2026-04-24 01:26 32.72601 -117.18188 86 ft 11 kts 272°
2026-04-24 01:26 32.72639 -117.18374 163 ft 38 kts 283°
2026-04-24 01:26 32.72731 -117.18820 278 ft 73 kts 279°
2026-04-24 01:26 32.72820 -117.19535 315 ft 100 kts 277°
2026-04-24 01:27 32.72863 -117.20422 305 ft 109 kts 274°
2026-04-24 01:27 32.72954 -117.21330 372 ft 115 kts 278°
2026-04-24 01:27 32.73083 -117.22271 414 ft 114 kts 281°
2026-04-24 01:27 32.73233 -117.23181 453 ft 113 kts 282°
2026-04-24 01:28 32.73389 -117.24098 436 ft 112 kts 282°
2026-04-24 01:28 32.73537 -117.25027 383 ft 119 kts 280°
2026-04-24 01:28 32.73447 -117.25987 385 ft 120 kts 251°
2026-04-24 01:28 32.72898 -117.26739 364 ft 123 kts 218°
2026-04-24 01:29 32.72136 -117.27206 363 ft 122 kts 213°
2026-04-24 01:29 32.71393 -117.27714 407 ft 124 kts 215°
2026-04-24 01:29 32.70646 -117.28240 435 ft 123 kts 215°
2026-04-24 01:29 32.69894 -117.28770 457 ft 126 kts 214°
2026-04-24 01:30 32.69139 -117.29303 474 ft 126 kts 214°
2026-04-24 01:30 32.68394 -117.29822 483 ft 126 kts 214°
2026-04-24 01:30 32.67640 -117.30346 486 ft 126 kts 214°
2026-04-24 01:30 32.66886 -117.30870 493 ft 125 kts 214°
2026-04-24 01:31 32.66123 -117.31392 486 ft 128 kts 214°
2026-04-24 01:31 32.65356 -117.31917 493 ft 128 kts 214°
2026-04-24 01:31 32.64590 -117.32441 493 ft 127 kts 214°
2026-04-24 01:31 32.63822 -117.32964 488 ft 128 kts 214°
2026-04-24 01:32 32.63050 -117.33483 492 ft 127 kts 214°
2026-04-24 01:32 32.62280 -117.34001 491 ft 127 kts 213°
2026-04-24 01:32 32.61503 -117.34514 482 ft 128 kts 213°
2026-04-24 01:32 32.60724 -117.35026 491 ft 128 kts 213°
2026-04-24 01:33 32.59949 -117.35534 491 ft 128 kts 213°
2026-04-24 01:33 32.59199 -117.36112 494 ft 128 kts 219°
2026-04-24 01:33 32.58465 -117.36709 496 ft 128 kts 219°
2026-04-24 01:33 32.57729 -117.37307 494 ft 128 kts 219°
2026-04-24 01:34 32.57020 -117.37936 492 ft 127 kts 223°
2026-04-24 01:34 32.56327 -117.38594 496 ft 127 kts 223°
2026-04-24 01:34 32.55647 -117.39239 492 ft 127 kts 223°
2026-04-24 01:34 32.54959 -117.39894 490 ft 127 kts 223°
2026-04-24 01:35 32.54271 -117.40548 494 ft 127 kts 223°
2026-04-24 01:35 32.53583 -117.41204 495 ft 127 kts 223°
2026-04-24 01:35 32.52892 -117.41862 493 ft 127 kts 223°
2026-04-24 01:35 32.52203 -117.42518 492 ft 127 kts 223°
2026-04-24 01:36 32.51513 -117.43171 492 ft 127 kts 223°
2026-04-24 01:36 32.50823 -117.43827 492 ft 127 kts 223°
2026-04-24 01:36 32.50134 -117.44480 495 ft 127 kts 223°
2026-04-24 01:36 32.49445 -117.45136 489 ft 127 kts 223°
2026-04-24 01:37 32.48767 -117.45783 490 ft 127 kts 223°
2026-04-24 01:37 32.48080 -117.46439 491 ft 127 kts 223°
2026-04-24 01:37 32.47366 -117.47119 437 ft 136 kts 223°
2026-04-24 01:37 32.46622 -117.47834 345 ft 137 kts 223°
2026-04-24 01:38 32.45900 -117.48529 427 ft 130 kts 223°
2026-04-24 01:38 32.45202 -117.49185 639 ft 127 kts 223°
2026-04-24 01:38 32.44507 -117.49833 764 ft 128 kts 223°
2026-04-24 01:38 32.43727 -117.50560 600 ft 154 kts 222°
2026-04-24 01:39 32.42883 -117.51409 483 ft 161 kts 224°
2026-04-24 01:39 32.42038 -117.52272 482 ft 161 kts 224°
2026-04-24 01:39 32.41189 -117.53138 475 ft 161 kts 224°
2026-04-24 01:39 32.40340 -117.54006 471 ft 161 kts 224°
2026-04-24 01:40 32.39491 -117.54872 465 ft 161 kts 224°
2026-04-24 01:40 32.38651 -117.55726 458 ft 161 kts 224°
2026-04-24 01:40 32.37801 -117.56593 448 ft 161 kts 224°
2026-04-24 01:40 32.36952 -117.57458 438 ft 161 kts 224°
2026-04-24 01:41 32.36104 -117.58324 438 ft 161 kts 224°
2026-04-24 01:41 32.35257 -117.59193 437 ft 160 kts 224°
2026-04-24 01:41 32.34409 -117.60061 450 ft 161 kts 224°
2026-04-24 01:41 32.33562 -117.60928 454 ft 161 kts 224°
2026-04-24 01:42 32.32715 -117.61792 458 ft 161 kts 224°
2026-04-24 01:42 32.32150 -117.62370 461 ft 162 kts 224°
2026-04-24 01:42 32.31023 -117.63521 463 ft 161 kts 224°
2026-04-24 01:42 32.30451 -117.64108 465 ft 161 kts 224°
2026-04-24 01:43 32.29612 -117.64968 469 ft 161 kts 223°
2026-04-24 01:43 32.28754 -117.65823 479 ft 161 kts 223°
2026-04-24 01:43 32.27897 -117.66680 481 ft 160 kts 223°
2026-04-24 01:43 32.27045 -117.67538 493 ft 161 kts 223°
2026-04-24 01:44 32.26191 -117.68398 503 ft 162 kts 223°
2026-04-24 01:44 32.25337 -117.69257 513 ft 161 kts 223°
2026-04-24 01:44 32.24479 -117.70118 520 ft 161 kts 223°
2026-04-24 01:44 32.23624 -117.70974 528 ft 162 kts 223°
2026-04-24 01:45 32.22760 -117.71824 535 ft 161 kts 222°
2026-04-24 01:45 32.21894 -117.72658 548 ft 161 kts 221°
2026-04-24 01:45 32.21018 -117.73484 562 ft 161 kts 221°
2026-04-24 01:45 32.20136 -117.74300 570 ft 161 kts 220°
2026-04-24 01:46 32.19248 -117.75106 581 ft 161 kts 220°
2026-04-24 01:46 32.18362 -117.75896 559 ft 161 kts 219°
2026-04-24 01:46 32.17460 -117.76696 499 ft 162 kts 219°
2026-04-24 01:46 32.16556 -117.77489 505 ft 162 kts 219°
2026-04-24 01:47 32.15645 -117.78272 490 ft 162 kts 219°
2026-04-24 01:47 32.14724 -117.79041 491 ft 161 kts 219°
2026-04-24 01:47 32.13808 -117.79807 488 ft 161 kts 219°
2026-04-24 01:47 32.12905 -117.80565 484 ft 162 kts 219°
2026-04-24 01:48 32.11986 -117.81334 485 ft 162 kts 219°
2026-04-24 01:48 32.11066 -117.82098 483 ft 161 kts 217°
2026-04-24 01:48 32.10134 -117.82842 484 ft 162 kts 217°
2026-04-24 01:48 32.09201 -117.83585 484 ft 162 kts 217°
2026-04-24 01:49 32.08266 -117.84329 486 ft 161 kts 217°
2026-04-24 01:49 32.07333 -117.85071 484 ft 162 kts 217°
2026-04-24 01:49 32.06410 -117.85804 484 ft 162 kts 217°
2026-04-24 01:49 32.05479 -117.86546 484 ft 162 kts 217°
2026-04-24 01:50 32.04545 -117.87291 481 ft 162 kts 217°
2026-04-24 01:50 32.03611 -117.88036 484 ft 162 kts 217°
2026-04-24 01:50 32.02677 -117.88781 484 ft 162 kts 217°
2026-04-24 01:50 32.01741 -117.89527 481 ft 162 kts 217°
2026-04-24 01:51 32.00807 -117.90270 484 ft 162 kts 217°
2026-04-24 01:51 31.99877 -117.91010 484 ft 161 kts 217°
2026-04-24 01:51 31.98942 -117.91753 483 ft 161 kts 217°
2026-04-24 01:51 31.98013 -117.92493 482 ft 162 kts 217°
2026-04-24 01:52 31.97091 -117.93226 482 ft 162 kts 217°
2026-04-24 01:52 31.96157 -117.93970 484 ft 162 kts 217°
2026-04-24 01:52 31.95216 -117.94719 482 ft 162 kts 217°
2026-04-24 01:52 31.94282 -117.95462 483 ft 162 kts 217°
2026-04-24 01:53 31.93346 -117.96206 482 ft 162 kts 217°
2026-04-24 01:53 31.92424 -117.96940 482 ft 162 kts 217°
2026-04-24 01:53 31.91492 -117.97682 480 ft 162 kts 217°
2026-04-24 01:53 31.90560 -117.98424 484 ft 162 kts 217°
2026-04-24 01:54 31.89626 -117.99168 484 ft 162 kts 217°
2026-04-24 01:54 31.88692 -117.99910 483 ft 162 kts 217°
2026-04-24 01:54 31.87760 -118.00652 482 ft 162 kts 217°
2026-04-24 01:54 31.86826 -118.01397 485 ft 162 kts 217°
2026-04-24 01:55 31.85893 -118.02138 480 ft 161 kts 217°
2026-04-24 01:55 31.84962 -118.02877 484 ft 162 kts 217°
2026-04-24 01:55 31.84028 -118.03619 484 ft 161 kts 217°
2026-04-24 01:55 31.83095 -118.04359 478 ft 162 kts 217°
2026-04-24 01:56 31.82160 -118.05102 484 ft 162 kts 217°
2026-04-24 01:56 31.81228 -118.05847 481 ft 162 kts 214°
2026-04-24 01:56 31.80244 -118.06499 477 ft 163 kts 211°
2026-04-24 01:56 31.79244 -118.07121 484 ft 163 kts 211°
2026-04-24 01:57 31.78243 -118.07743 484 ft 163 kts 211°
2026-04-24 01:57 31.77242 -118.08364 484 ft 163 kts 211°
2026-04-24 01:57 31.76244 -118.08983 485 ft 162 kts 211°
2026-04-24 01:57 31.75245 -118.09604 478 ft 163 kts 211°
2026-04-24 01:58 31.74247 -118.10225 482 ft 163 kts 211°
2026-04-24 01:58 31.73260 -118.10839 484 ft 163 kts 211°
2026-04-24 01:58 31.72246 -118.11469 483 ft 163 kts 210°
2026-04-24 01:58 31.71251 -118.12069 484 ft 163 kts 210°
2026-04-24 01:59 31.70239 -118.12673 481 ft 163 kts 210°
2026-04-24 01:59 31.69228 -118.13276 482 ft 163 kts 210°
2026-04-24 01:59 31.68218 -118.13874 483 ft 162 kts 210°
2026-04-24 01:59 31.67207 -118.14468 484 ft 163 kts 210°
2026-04-24 02:00 31.66189 -118.15055 482 ft 163 kts 210°
2026-04-24 02:00 31.65172 -118.15642 484 ft 163 kts 210°
2026-04-24 02:00 31.64151 -118.16231 484 ft 163 kts 210°
2026-04-24 02:00 31.63135 -118.16818 482 ft 163 kts 210°
2026-04-24 02:01 31.62118 -118.17404 480 ft 163 kts 210°
2026-04-24 02:01 31.61101 -118.17991 482 ft 163 kts 215°
2026-04-24 02:01 31.60117 -118.18644 477 ft 163 kts 217°
2026-04-24 02:01 31.59154 -118.19334 482 ft 162 kts 217°
2026-04-24 02:02 31.58226 -118.20087 484 ft 162 kts 221°
2026-04-24 02:02 31.57350 -118.20885 482 ft 161 kts 221°
2026-04-24 02:02 31.56464 -118.21698 483 ft 162 kts 221°
2026-04-24 02:02 31.55582 -118.22515 482 ft 161 kts 221°
2026-04-24 02:03 31.53826 -118.24156 484 ft 161 kts 221°
2026-04-24 02:03 31.52952 -118.24981 481 ft 161 kts 221°
2026-04-24 02:03 31.52068 -118.25788 480 ft 161 kts 221°
2026-04-24 02:04 31.51197 -118.26619 481 ft 160 kts 231°
2026-04-24 02:04 31.50506 -118.27626 485 ft 157 kts 249°
2026-04-24 02:04 31.50033 -118.28792 486 ft 158 kts 247°
2026-04-24 02:04 31.49561 -118.29955 482 ft 158 kts 247°
2026-04-24 02:05 31.49072 -118.31097 481 ft 159 kts 245°
2026-04-24 02:05 31.48567 -118.32249 482 ft 159 kts 245°
2026-04-24 02:05 31.48061 -118.33404 484 ft 159 kts 245°
2026-04-24 02:05 31.47551 -118.34554 481 ft 159 kts 244°
2026-04-24 02:06 31.47036 -118.35707 480 ft 159 kts 244°
2026-04-24 02:06 31.46497 -118.36841 481 ft 159 kts 243°
2026-04-24 02:06 31.45956 -118.37972 479 ft 159 kts 245°
2026-04-24 02:06 31.45442 -118.39120 485 ft 159 kts 245°
2026-04-24 02:07 31.44953 -118.40283 485 ft 158 kts 250°
2026-04-24 02:07 31.44594 -118.41468 411 ft 143 kts 269°
2026-04-24 02:07 31.44877 -118.42242 317 ft 94 kts
2026-04-24 02:07 31.45487 -118.42113 339 ft 94 kts 37°
2026-04-24 02:08 31.45888 -118.41530 311 ft 91 kts 94°
2026-04-24 02:08 31.45674 -118.40949 255 ft 64 kts 199°
2026-04-24 02:08 31.45437 -118.41152 215 ft 39 kts 283°
2026-04-24 02:08 31.45490 -118.41480 157 ft 40 kts 265°
2026-04-24 02:09 31.45485 -118.41604 111 ft 1 kts 269°
2026-04-24 02:09 31.45492 -118.41603 62 ft 0 kts 269°
2026-04-24 02:09 31.45492 -118.41604 37 ft 1 kts 265°
2026-04-24 02:10 31.45491 -118.41604 43 ft 0 kts 264°
2026-04-24 02:11 31.45492 -118.41604 44 ft 1 kts 264°
2026-04-24 02:11 31.45491 -118.41604 45 ft 0 kts 264°
2026-04-24 02:11 31.45492 -118.41604 45 ft 1 kts 293°
2026-04-24 02:12 31.45491 -118.41605 44 ft 0 kts 294°
2026-04-24 02:12 31.45492 -118.41604 45 ft 1 kts 294°
2026-04-24 02:13 31.45492 -118.41605 45 ft 0 kts 294°
2026-04-24 02:13 31.45492 -118.41604 45 ft 1 kts 294°
2026-04-24 02:13 31.45493 -118.41604 44 ft 0 kts 294°
2026-04-24 02:13 31.45492 -118.41605 45 ft 0 kts 294°
2026-04-24 02:14 31.45488 -118.41607 44 ft 11 kts 293°
2026-04-24 02:14 31.45200 -118.41745 91 ft 40 kts 291°
2026-04-24 02:14 31.45135 -118.41775 64 ft 6 kts 313°
2026-04-24 02:14 31.45166 -118.41741 30 ft 5 kts 46°
2026-04-24 02:15 31.45171 -118.41735 41 ft 1 kts 49°
2026-04-24 02:15 31.45170 -118.41734 36 ft 0 kts 51°
2026-04-24 02:15 31.45170 -118.41735 33 ft 0 kts 70°
2026-04-24 02:15 31.45154 -118.41629 158 ft 36 kts 108°
2026-04-24 02:16 31.44788 -118.41260 358 ft 111 kts 157°
2026-04-24 02:16 31.43879 -118.40790 348 ft 163 kts 173°
2026-04-24 02:16 31.42742 -118.40460 414 ft 171 kts 174°
2026-04-24 02:16 31.41552 -118.40156 146 ft 178 kts 188°
2026-04-24 02:17 31.40390 -118.40037 215 ft 163 kts 183°
2026-04-24 02:17 31.39273 -118.39924 242 ft 161 kts 178°
2026-04-24 02:17 31.38174 -118.39698 261 ft 158 kts 176°
2026-04-24 02:17 31.37092 -118.39506 359 ft 162 kts 174°
2026-04-24 02:18 31.35975 -118.39259 270 ft 164 kts 173°
2026-04-24 02:18 31.34891 -118.38807 245 ft 166 kts 154°
2026-04-24 02:18 31.34041 -118.37896 215 ft 164 kts 127°
2026-04-24 02:18 31.33597 -118.36687 248 ft 162 kts 102°
2026-04-24 02:19 31.33565 -118.35404 236 ft 156 kts 73°
2026-04-24 02:19 31.34003 -118.34298 198 ft 145 kts 50°
2026-04-24 02:19 31.34530 -118.33282 217 ft 151 kts 50°
2026-04-24 02:19 31.35150 -118.32284 191 ft 153 kts 45°
2026-04-24 02:20 31.35791 -118.31324 233 ft 149 kts 45°
2026-04-24 02:20 31.36416 -118.30336 276 ft 154 kts 45°
2026-04-24 02:20 31.37123 -118.29270 314 ft 180 kts 46°
2026-04-24 02:20 31.37890 -118.28075 271 ft 183 kts 46°
2026-04-24 02:21 31.38665 -118.26878 342 ft 184 kts 45°
2026-04-24 02:21 31.39479 -118.25747 332 ft 162 kts 43°
2026-04-24 02:21 31.40122 -118.24710 435 ft 163 kts 49°
2026-04-24 02:21 31.40813 -118.23668 437 ft 156 kts 43°
2026-04-24 02:22 31.41466 -118.22693 432 ft 149 kts 45°
2026-04-24 02:22 31.42118 -118.21675 451 ft 157 kts 45°
2026-04-24 02:22 31.42789 -118.20681 445 ft 161 kts 46°
2026-04-24 02:22 31.43436 -118.19666 439 ft 149 kts 43°
2026-04-24 02:23 31.44073 -118.18702 437 ft 154 kts 44°
2026-04-24 02:23 31.44724 -118.17695 438 ft 155 kts 41°
2026-04-24 02:23 31.45378 -118.16752 440 ft 153 kts 46°
2026-04-24 02:23 31.46031 -118.15712 430 ft 160 kts 46°
2026-04-24 02:24 31.46693 -118.14756 437 ft 152 kts 37°
2026-04-24 02:24 31.47344 -118.13823 442 ft 148 kts 42°
2026-04-24 02:24 31.48015 -118.12875 424 ft 153 kts 42°
2026-04-24 02:24 31.48677 -118.11909 437 ft 149 kts 44°
2026-04-24 02:25 31.49325 -118.10948 429 ft 151 kts 45°
2026-04-24 02:25 31.49965 -118.10029 454 ft 144 kts 45°
2026-04-24 02:25 31.50601 -118.09084 443 ft 149 kts 49°
2026-04-24 02:25 31.51249 -118.08138 443 ft 144 kts 50°
2026-04-24 02:26 31.51876 -118.07220 457 ft 145 kts 45°
2026-04-24 02:26 31.52533 -118.06240 437 ft 154 kts 45°
2026-04-24 02:26 31.53200 -118.05316 455 ft 146 kts 48°
2026-04-24 02:26 31.53826 -118.04375 439 ft 152 kts 44°
2026-04-24 02:27 31.54505 -118.03396 440 ft 158 kts 44°
2026-04-24 02:27 31.55213 -118.02491 436 ft 151 kts 40°
2026-04-24 02:27 31.55910 -118.01588 443 ft 151 kts 40°
2026-04-24 02:27 31.56652 -118.00666 422 ft 150 kts 36°
2026-04-24 02:28 31.57352 -117.99804 416 ft 146 kts 41°
2026-04-24 02:28 31.58059 -117.98887 434 ft 154 kts 39°
2026-04-24 02:28 31.58829 -117.98005 454 ft 156 kts 39°
2026-04-24 02:28 31.59566 -117.97074 428 ft 156 kts 40°
2026-04-24 02:29 31.60299 -117.96171 410 ft 148 kts 40°
2026-04-24 02:29 31.61012 -117.95290 420 ft 153 kts 40°
2026-04-24 02:29 31.61737 -117.94386 436 ft 147 kts 39°
2026-04-24 02:29 31.62451 -117.93499 478 ft 152 kts 40°
2026-04-24 02:30 31.63182 -117.92560 439 ft 155 kts 37°
2026-04-24 02:30 31.63901 -117.91674 436 ft 150 kts 38°
2026-04-24 02:30 31.64371 -117.91065 438 ft 155 kts 40°
2026-04-24 02:30 31.65077 -117.90179 429 ft 148 kts 38°
2026-04-24 02:31 31.65818 -117.89292 421 ft 149 kts 41°
2026-04-24 02:31 31.66506 -117.88406 429 ft 150 kts 43°
2026-04-24 02:31 31.67217 -117.87523 450 ft 150 kts 38°
2026-04-24 02:31 31.67938 -117.86615 427 ft 149 kts 43°
2026-04-24 02:32 31.68613 -117.85741 441 ft 147 kts 39°
2026-04-24 02:32 31.69338 -117.84839 431 ft 160 kts 40°
2026-04-24 02:32 31.70068 -117.83943 426 ft 149 kts 37°
2026-04-24 02:32 31.70797 -117.83070 438 ft 156 kts 38°
2026-04-24 02:33 31.71565 -117.82150 415 ft 149 kts 43°
2026-04-24 02:33 31.72284 -117.81272 382 ft 139 kts 37°
2026-04-24 02:33 31.73022 -117.80464 521 ft 159 kts 40°
2026-04-24 02:33 31.73796 -117.79489 441 ft 158 kts 40°
2026-04-24 02:34 31.74536 -117.78626 423 ft 150 kts 38°
2026-04-24 02:34 31.75261 -117.77763 434 ft 153 kts 40°
2026-04-24 02:34 31.76032 -117.76848 422 ft 161 kts 36°
2026-04-24 02:34 31.76817 -117.75971 433 ft 148 kts 39°
2026-04-24 02:35 31.77582 -117.75155 426 ft 152 kts 34°
2026-04-24 02:35 31.78370 -117.74295 427 ft 155 kts 37°
2026-04-24 02:35 31.79116 -117.73478 429 ft 145 kts 38°
2026-04-24 02:35 31.79868 -117.72659 433 ft 152 kts 38°
2026-04-24 02:36 31.80616 -117.71802 416 ft 139 kts 38°
2026-04-24 02:36 31.81334 -117.70973 418 ft 148 kts 38°
2026-04-24 02:36 31.82108 -117.70162 413 ft 151 kts 37°
2026-04-24 02:36 31.82903 -117.69339 428 ft 158 kts 37°
2026-04-24 02:37 31.83667 -117.68498 431 ft 148 kts 34°
2026-04-24 02:37 31.84469 -117.67697 420 ft 153 kts 40°
2026-04-24 02:37 31.85237 -117.66834 444 ft 154 kts 39°
2026-04-24 02:37 31.85990 -117.65970 437 ft 150 kts 36°
2026-04-24 02:38 31.86734 -117.65098 416 ft 149 kts 33°
2026-04-24 02:38 31.87515 -117.64278 420 ft 150 kts 38°
2026-04-24 02:38 31.88278 -117.63389 442 ft 153 kts 32°
2026-04-24 02:38 31.89039 -117.62595 430 ft 147 kts 38°
2026-04-24 02:39 31.89815 -117.61743 434 ft 153 kts 33°
2026-04-24 02:39 31.90558 -117.60886 426 ft 149 kts 39°
2026-04-24 02:39 31.91347 -117.60083 429 ft 151 kts 37°
2026-04-24 02:39 31.92120 -117.59212 430 ft 152 kts 36°
2026-04-24 02:40 31.92916 -117.58403 418 ft 152 kts 36°
2026-04-24 02:40 31.93695 -117.57633 434 ft 143 kts 34°
2026-04-24 02:40 31.94494 -117.56853 426 ft 156 kts 38°
2026-04-24 02:40 31.95292 -117.56017 425 ft 151 kts 38°
2026-04-24 02:41 31.96058 -117.55230 428 ft 148 kts 36°
2026-04-24 02:41 31.96860 -117.54428 429 ft 152 kts 34°
2026-04-24 02:41 31.97688 -117.53589 423 ft 153 kts 37°
2026-04-24 02:41 31.98488 -117.52814 434 ft 153 kts 33°
2026-04-24 02:42 31.99306 -117.52007 417 ft 147 kts 39°
2026-04-24 02:42 32.00092 -117.51211 427 ft 154 kts 34°
2026-04-24 02:42 32.00882 -117.50362 423 ft 148 kts 35°
2026-04-24 02:42 32.01628 -117.49592 429 ft 141 kts 36°
2026-04-24 02:43 32.02381 -117.48775 416 ft 155 kts 39°
2026-04-24 02:43 32.03170 -117.47906 439 ft 151 kts 32°
2026-04-24 02:43 32.03965 -117.47108 456 ft 149 kts 35°
2026-04-24 02:43 32.04780 -117.46331 419 ft 155 kts 37°
2026-04-24 02:44 32.05535 -117.45542 425 ft 138 kts 34°
2026-04-24 02:44 32.06292 -117.44817 410 ft 144 kts 36°
2026-04-24 02:44 32.07111 -117.44014 436 ft 154 kts 35°
2026-04-24 02:44 32.07902 -117.43199 436 ft 148 kts 35°
2026-04-24 02:45 32.08697 -117.42440 437 ft 150 kts 39°
2026-04-24 02:45 32.09499 -117.41654 428 ft 151 kts 37°
2026-04-24 02:45 32.10279 -117.40884 434 ft 146 kts 35°
2026-04-24 02:45 32.11074 -117.40127 431 ft 149 kts 36°
2026-04-24 02:46 32.11890 -117.39354 427 ft 149 kts 36°
2026-04-24 02:46 32.12740 -117.38731 452 ft 145 kts 28°
2026-04-24 02:46 32.13636 -117.38092 425 ft 150 kts 28°
2026-04-24 02:46 32.14534 -117.37473 436 ft 150 kts 29°
2026-04-24 02:47 32.15436 -117.36828 429 ft 147 kts 28°
2026-04-24 02:47 32.16315 -117.36191 443 ft 147 kts 27°
2026-04-24 02:47 32.17202 -117.35547 437 ft 149 kts 30°
2026-04-24 02:47 32.18085 -117.34904 428 ft 149 kts 28°
2026-04-24 02:48 32.18965 -117.34261 428 ft 149 kts 29°
2026-04-24 02:48 32.19849 -117.33649 431 ft 146 kts 27°
2026-04-24 02:48 32.20746 -117.33024 437 ft 153 kts 28°
2026-04-24 02:48 32.21657 -117.32378 432 ft 148 kts 27°
2026-04-24 02:49 32.22560 -117.31747 428 ft 153 kts 28°
2026-04-24 02:49 32.23458 -117.31113 437 ft 143 kts 26°
2026-04-24 02:49 32.24340 -117.30489 408 ft 149 kts 27°
2026-04-24 02:49 32.25211 -117.29874 435 ft 151 kts 28°
2026-04-24 02:50 32.26085 -117.29252 451 ft 149 kts 28°
2026-04-24 02:50 32.26972 -117.28614 430 ft 150 kts 28°
2026-04-24 02:50 32.27867 -117.27976 443 ft 151 kts 26°
2026-04-24 02:50 32.28824 -117.27413 427 ft 154 kts 25°
2026-04-24 02:51 32.29767 -117.26858 428 ft 148 kts 24°
2026-04-24 02:51 32.30711 -117.26305 436 ft 149 kts 24°
2026-04-24 02:51 32.31638 -117.25751 441 ft 151 kts 25°
2026-04-24 02:51 32.32581 -117.25185 420 ft 148 kts 25°
2026-04-24 02:52 32.33512 -117.24632 436 ft 150 kts 25°
2026-04-24 02:52 32.34440 -117.24171 427 ft 147 kts 18°
2026-04-24 02:52 32.35433 -117.23721 425 ft 151 kts 18°
2026-04-24 02:52 32.36390 -117.23294 407 ft 146 kts 19°
2026-04-24 02:53 32.37368 -117.22862 431 ft 151 kts 19°
2026-04-24 02:53 32.38361 -117.22433 422 ft 149 kts 18°
2026-04-24 02:53 32.39341 -117.22018 421 ft 148 kts 18°
2026-04-24 02:53 32.40304 -117.21592 416 ft 148 kts 19°
2026-04-24 02:54 32.41281 -117.21162 421 ft 150 kts 19°
2026-04-24 02:54 32.42276 -117.20737 430 ft 153 kts 18°
2026-04-24 02:54 32.43267 -117.20347 434 ft 148 kts 14°
2026-04-24 02:54 32.44262 -117.19983 429 ft 151 kts 15°
2026-04-24 02:55 32.45288 -117.19637 422 ft 150 kts 13°
2026-04-24 02:55 32.46265 -117.19305 455 ft 141 kts 15°
2026-04-24 02:55 32.47257 -117.18950 430 ft 151 kts 15°
2026-04-24 02:55 32.48267 -117.18589 446 ft 151 kts 15°
2026-04-24 02:56 32.49296 -117.18214 463 ft 153 kts 15°
2026-04-24 02:56 32.50287 -117.17854 454 ft 152 kts 16°
2026-04-24 02:56 32.51302 -117.17488 437 ft 144 kts 14°
2026-04-24 02:56 32.52291 -117.17143 452 ft 150 kts 15°
2026-04-24 02:57 32.53290 -117.16802 478 ft 149 kts 14°
2026-04-24 02:57 32.54300 -117.16448 466 ft 151 kts 13°
2026-04-24 02:57 32.55312 -117.16099 459 ft 150 kts 14°
2026-04-24 02:57 32.56305 -117.15752 453 ft 151 kts 14°
2026-04-24 02:58 32.57318 -117.15389 466 ft 152 kts 14°
2026-04-24 02:58 32.58318 -117.15040 472 ft 150 kts 14°
2026-04-24 02:58 32.59319 -117.14679 463 ft 150 kts 14°
2026-04-24 02:58 32.60305 -117.14329 461 ft 150 kts 14°
2026-04-24 02:59 32.61298 -117.13985 490 ft 147 kts 14°
2026-04-24 02:59 32.62182 -117.13733 619 ft 115 kts
2026-04-24 02:59 32.62979 -117.13599 635 ft 119 kts
2026-04-24 02:59 32.63815 -117.13525 627 ft 121 kts 358°
2026-04-24 03:00 32.64665 -117.13550 551 ft 120 kts 355°
2026-04-24 03:00 32.65430 -117.13662 586 ft 110 kts 349°
2026-04-24 03:00 32.66060 -117.13839 581 ft 85 kts 338°
2026-04-24 03:00 32.66649 -117.14050 480 ft 89 kts 339°
2026-04-24 03:01 32.67193 -117.14299 458 ft 79 kts 334°
2026-04-24 03:01 32.67673 -117.14592 522 ft 72 kts 327°
2026-04-24 03:01 32.68112 -117.14935 557 ft 79 kts 323°
2026-04-24 03:01 32.68502 -117.15267 591 ft 63 kts 318°
2026-04-24 03:02 32.68803 -117.15518 602 ft 47 kts 322°
2026-04-24 03:02 32.69012 -117.15691 509 ft 34 kts 324°
2026-04-24 03:02 32.69099 -117.15744 483 ft 10 kts 331°
2026-04-24 03:02 32.69138 -117.15758 424 ft 5 kts 321°
2026-04-24 03:03 32.69117 -117.15763 427 ft 2 kts 320°
2026-04-24 03:03 32.69125 -117.15785 404 ft 4 kts 328°
2026-04-24 03:03 32.69145 -117.15808 392 ft 8 kts 322°
2026-04-24 03:03 32.69183 -117.15869 378 ft 2 kts 317°
2026-04-24 03:04 32.69137 -117.15823 353 ft 11 kts 327°
2026-04-24 03:04 32.69157 -117.15813 321 ft 7 kts 324°
2026-04-24 03:04 32.69182 -117.15845 322 ft 3 kts 323°
2026-04-24 03:04 32.69157 -117.15849 293 ft 3 kts 322°
2026-04-24 03:05 32.69144 -117.15868 317 ft 5 kts 317°
2026-04-24 03:05 32.69156 -117.15914 274 ft 6 kts 317°
2026-04-24 03:05 32.69181 -117.15946 261 ft 9 kts 315°
2026-04-24 03:05 32.69237 -117.16001 238 ft 3 kts 319°
2026-04-24 03:06 32.69296 -117.16015 253 ft 8 kts 328°
2026-04-24 03:06 32.69314 -117.16021 253 ft 3 kts 317°
2026-04-24 03:06 32.69307 -117.16025 231 ft 5 kts 324°
2026-04-24 03:06 32.69321 -117.16044 360 ft 19 kts 320°
2026-04-24 03:07 32.69509 -117.16236 780 ft 46 kts 322°
2026-04-24 03:07 32.69810 -117.16521 1263 ft 62 kts 322°
2026-04-24 03:07 32.70201 -117.16881 1348 ft 80 kts 322°
2026-04-24 03:07 32.70664 -117.17316 1371 ft 90 kts 320°
2026-04-24 03:08 32.71175 -117.17815 1314 ft 93 kts 322°
2026-04-24 03:08 32.72216 -117.18647 1370 ft 93 kts 337°
2026-04-24 03:08 32.72837 -117.18784 1347 ft 92 kts 357°
2026-04-24 03:09 32.73462 -117.18656 1278 ft 95 kts 17°
2026-04-24 03:09 32.73992 -117.18282 1177 ft 86 kts 58°
2026-04-24 03:09 32.74299 -117.17629 1026 ft 96 kts 62°
2026-04-24 03:09 32.74585 -117.16981 983 ft 86 kts 61°
2026-04-24 03:10 32.74867 -117.16477 805 ft 50 kts 54°
2026-04-24 03:10 32.75023 -117.16259 682 ft 35 kts 36°
2026-04-24 03:10 32.75161 -117.16181 620 ft 8 kts 36°
2026-04-24 03:10 32.75216 -117.16118 610 ft 20 kts 59°
2026-04-24 03:11 32.75245 -117.15916 611 ft 26 kts 124°
2026-04-24 03:11 32.75068 -117.15842 607 ft 35 kts 204°
2026-04-24 03:11 32.74971 -117.16042 577 ft 36 kts 298°
2026-04-24 03:11 32.75179 -117.16138 580 ft 34 kts 39°
2026-04-24 03:12 32.75194 -117.15899 565 ft 35 kts 150°
2026-04-24 03:12 32.74988 -117.15955 565 ft 34 kts 250°
2026-04-24 03:12 32.75109 -117.16149 594 ft 37 kts 344°
2026-04-24 03:12 32.75233 -117.15910 576 ft 37 kts 131°
2026-04-24 03:13 32.75033 -117.15933 488 ft 26 kts 272°
2026-04-24 03:13 32.75078 -117.16020 412 ft 8 kts 296°
2026-04-24 03:13 32.75106 -117.16055 355 ft 5 kts 334°
2026-04-24 03:13 32.75126 -117.16060 346 ft 1 kts
2026-04-24 03:14 32.75125 -117.16063 345 ft 0 kts 359°
2026-04-24 03:17 32.75125 -117.16062 351 ft 0 kts 357°
2026-04-24 03:17 32.75172 -117.16037 473 ft 24 kts 55°
2026-04-24 03:17 32.75215 -117.15907 515 ft 30 kts 167°
2026-04-24 03:18 32.75026 -117.16031 505 ft 30 kts 311°
2026-04-24 03:18 32.75203 -117.16119 548 ft 35 kts 46°
2026-04-24 03:18 32.75209 -117.15834 535 ft 42 kts 170°
2026-04-24 03:18 32.75025 -117.15880 500 ft 43 kts 255°
2026-04-24 03:19 32.75087 -117.16138 518 ft 32 kts 350°
2026-04-24 03:19 32.75227 -117.16043 519 ft 26 kts 75°
2026-04-24 03:19 32.75116 -117.15895 523 ft 30 kts 189°
2026-04-24 03:19 32.75059 -117.16114 527 ft 37 kts 308°
2026-04-24 03:20 32.75228 -117.16054 524 ft 28 kts 75°
2026-04-24 03:20 32.75148 -117.15912 529 ft 21 kts 171°
2026-04-24 03:20 32.75048 -117.16028 505 ft 26 kts 260°
2026-04-24 03:20 32.75187 -117.16108 510 ft 27 kts 38°
2026-04-24 03:21 32.75192 -117.15946 535 ft 20 kts 149°
2026-04-24 03:21 32.75083 -117.15959 510 ft 18 kts 229°
2026-04-24 03:21 32.75061 -117.16083 439 ft 8 kts 308°
2026-04-24 03:21 32.75099 -117.16087 431 ft 3 kts 356°
2026-04-24 03:22 32.75097 -117.16089 483 ft 1 kts 338°
2026-04-24 03:22 32.75098 -117.16086 525 ft 0 kts 241°
2026-04-24 03:22 32.75097 -117.16086 525 ft 0 kts 239°
2026-04-24 03:23 32.75077 -117.16114 591 ft 19 kts 239°
2026-04-24 03:23 32.74847 -117.16432 516 ft 74 kts 233°
2026-04-24 03:23 32.74376 -117.16871 440 ft 94 kts 221°
2026-04-24 03:23 32.73788 -117.17312 381 ft 104 kts 212°
2026-04-24 03:24 32.73124 -117.17689 285 ft 96 kts 208°
2026-04-24 03:24 32.72653 -117.17920 209 ft 32 kts 215°
2026-04-24 03:24 32.72591 -117.17994 135 ft 12 kts 285°
2026-04-24 03:24 32.72605 -117.18076 39 ft 6 kts 289°
2026-04-24 03:25 32.72621 -117.18123 31 ft 4 kts 292°
2026-04-24 03:25 32.72624 -117.18142 23 ft 1 kts 294°
2026-04-24 03:25 32.72625 -117.18143 19 ft 0 kts 294°